Year,Month,Day,Hour,Minute,Value (Times are PST for temperature in C)
2021,03,31,00,00,5.30
2021,03,31,00,01,5.30
2021,03,31,00,02,5.30
2021,03,31,00,03,5.30
2021,03,31,00,04,5.30
2021,03,31,00,05,5.30
2021,03,31,00,06,5.30
2021,03,31,00,07,5.30
2021,03,31,00,08,5.30
2021,03,31,00,09,5.30
2021,03,31,00,10,5.30
2021,03,31,00,11,5.30
2021,03,31,00,12,5.30
2021,03,31,00,13,5.30
2021,03,31,00,14,5.30
2021,03,31,00,15,5.20
2021,03,31,00,16,5.20
2021,03,31,00,17,5.20
2021,03,31,00,18,5.20
2021,03,31,00,19,5.20
2021,03,31,00,20,5.20
2021,03,31,00,21,5.20
2021,03,31,00,22,5.20
2021,03,31,00,23,5.20
2021,03,31,00,24,5.20
2021,03,31,00,25,5.20
2021,03,31,00,26,5.20
2021,03,31,00,27,5.20
2021,03,31,00,28,5.20
2021,03,31,00,29,5.20
2021,03,31,00,30,5.20
2021,03,31,00,31,5.20
2021,03,31,00,32,5.20
2021,03,31,00,33,5.20
2021,03,31,00,34,5.20
2021,03,31,00,35,5.20
2021,03,31,00,36,5.20
2021,03,31,00,37,5.20
2021,03,31,00,38,5.20
2021,03,31,00,39,5.10
2021,03,31,00,40,5.20
2021,03,31,00,41,5.10
2021,03,31,00,42,5.10
2021,03,31,00,43,5.10
2021,03,31,00,44,5.10
2021,03,31,00,45,5.10
2021,03,31,00,46,5.10
2021,03,31,00,47,5.10
2021,03,31,00,48,5.10
2021,03,31,00,49,5.10
2021,03,31,00,50,5.10
2021,03,31,00,51,5.10
2021,03,31,00,52,5.10
2021,03,31,00,53,5.10
2021,03,31,00,54,5.10
2021,03,31,00,55,5.10
2021,03,31,00,56,5.10
2021,03,31,00,57,5.10
2021,03,31,00,58,5.10
2021,03,31,00,59,5.00
2021,03,31,01,00,5.00
2021,03,31,01,01,5.00
2021,03,31,01,02,5.00
2021,03,31,01,03,5.00
2021,03,31,01,04,5.00
2021,03,31,01,05,4.90
2021,03,31,01,06,4.90
2021,03,31,01,07,4.90
2021,03,31,01,08,4.90
2021,03,31,01,09,4.90
2021,03,31,01,10,4.80
2021,03,31,01,11,4.80
2021,03,31,01,12,4.80
2021,03,31,01,13,4.80
2021,03,31,01,14,4.80
2021,03,31,01,15,4.80
2021,03,31,01,16,4.70
2021,03,31,01,17,4.70
2021,03,31,01,18,4.70
2021,03,31,01,19,4.70
2021,03,31,01,20,4.70
2021,03,31,01,21,4.70
2021,03,31,01,22,4.70
2021,03,31,01,23,4.60
2021,03,31,01,24,4.60
2021,03,31,01,25,4.60
2021,03,31,01,26,4.60
2021,03,31,01,27,4.60
2021,03,31,01,28,4.60
2021,03,31,01,29,4.60
2021,03,31,01,30,4.60
2021,03,31,01,31,4.60
2021,03,31,01,32,4.50
2021,03,31,01,33,4.50
2021,03,31,01,34,4.50
2021,03,31,01,35,4.50
2021,03,31,01,36,4.50
2021,03,31,01,37,4.40
2021,03,31,01,38,4.40
2021,03,31,01,39,4.40
2021,03,31,01,40,4.40
2021,03,31,01,41,4.40
2021,03,31,01,42,4.40
2021,03,31,01,43,4.40
2021,03,31,01,44,4.30
2021,03,31,01,45,4.30
2021,03,31,01,46,4.30
2021,03,31,01,47,4.30
2021,03,31,01,48,4.30
2021,03,31,01,49,4.30
2021,03,31,01,50,4.30
2021,03,31,01,51,4.30
2021,03,31,01,52,4.20
2021,03,31,01,53,4.20
2021,03,31,01,54,4.20
2021,03,31,01,55,4.20
2021,03,31,01,56,4.20
2021,03,31,01,57,4.20
2021,03,31,01,58,4.20
2021,03,31,01,59,4.20
2021,03,31,02,00,4.20
2021,03,31,02,01,4.20
2021,03,31,02,02,4.20
2021,03,31,02,03,4.20
2021,03,31,02,04,4.20
2021,03,31,02,05,4.20
2021,03,31,02,06,4.20
2021,03,31,02,07,4.20
2021,03,31,02,08,4.20
2021,03,31,02,09,4.10
2021,03,31,02,10,4.10
2021,03,31,02,11,4.10
2021,03,31,02,12,4.10
2021,03,31,02,13,4.10
2021,03,31,02,14,4.10
2021,03,31,02,15,4.10
2021,03,31,02,16,4.10
2021,03,31,02,17,4.10
2021,03,31,02,18,4.00
2021,03,31,02,19,4.00
2021,03,31,02,20,4.00
2021,03,31,02,21,4.00
2021,03,31,02,22,4.00
2021,03,31,02,23,4.00
2021,03,31,02,24,4.00
2021,03,31,02,25,4.00
2021,03,31,02,26,4.00
2021,03,31,02,27,4.00
2021,03,31,02,28,4.00
2021,03,31,02,29,4.00
2021,03,31,02,30,4.00
2021,03,31,02,31,4.00
2021,03,31,02,32,4.00
2021,03,31,02,33,4.00
2021,03,31,02,34,4.00
2021,03,31,02,35,4.00
2021,03,31,02,36,4.00
2021,03,31,02,37,4.00
2021,03,31,02,38,4.00
2021,03,31,02,39,4.00
2021,03,31,02,40,4.00
2021,03,31,02,41,4.00
2021,03,31,02,42,3.90
2021,03,31,02,43,4.00
2021,03,31,02,44,4.00
2021,03,31,02,45,4.00
2021,03,31,02,46,4.00
2021,03,31,02,47,4.00
2021,03,31,02,48,4.00
2021,03,31,02,49,4.00
2021,03,31,02,50,4.00
2021,03,31,02,51,4.00
2021,03,31,02,52,4.00
2021,03,31,02,53,4.00
2021,03,31,02,54,4.00
2021,03,31,02,55,4.00
2021,03,31,02,56,4.00
2021,03,31,02,57,4.10
2021,03,31,02,58,4.10
2021,03,31,02,59,4.10
2021,03,31,03,00,4.10
2021,03,31,03,01,4.10
2021,03,31,03,02,4.10
2021,03,31,03,03,4.10
2021,03,31,03,04,4.10
2021,03,31,03,05,4.10
2021,03,31,03,06,4.10
2021,03,31,03,07,4.10
2021,03,31,03,08,4.10
2021,03,31,03,09,4.10
2021,03,31,03,10,4.00
2021,03,31,03,11,4.00
2021,03,31,03,12,4.00
2021,03,31,03,13,4.00
2021,03,31,03,14,3.90
2021,03,31,03,15,3.90
2021,03,31,03,16,3.90
2021,03,31,03,17,3.90
2021,03,31,03,18,3.90
2021,03,31,03,19,3.80
2021,03,31,03,20,3.80
2021,03,31,03,21,3.80
2021,03,31,03,22,3.80
2021,03,31,03,23,3.80
2021,03,31,03,24,3.70
2021,03,31,03,25,3.70
2021,03,31,03,26,3.70
2021,03,31,03,27,3.70
2021,03,31,03,28,3.70
2021,03,31,03,29,3.70
2021,03,31,03,30,3.70
2021,03,31,03,31,3.60
2021,03,31,03,32,3.60
2021,03,31,03,33,3.60
2021,03,31,03,34,3.60
2021,03,31,03,35,3.60
2021,03,31,03,36,3.60
2021,03,31,03,37,3.60
2021,03,31,03,38,3.60
2021,03,31,03,39,3.60
2021,03,31,03,40,3.60
2021,03,31,03,41,3.60
2021,03,31,03,42,3.60
2021,03,31,03,43,3.60
2021,03,31,03,44,3.60
2021,03,31,03,45,3.60
2021,03,31,03,46,3.60
2021,03,31,03,47,3.60
2021,03,31,03,48,3.60
2021,03,31,03,49,3.60
2021,03,31,03,50,3.60
2021,03,31,03,51,3.60
2021,03,31,03,52,3.60
2021,03,31,03,53,3.60
2021,03,31,03,54,3.60
2021,03,31,03,55,3.60
2021,03,31,03,56,3.50
2021,03,31,03,57,3.50
2021,03,31,03,58,3.50
2021,03,31,03,59,3.50
2021,03,31,04,00,3.50
2021,03,31,04,01,3.40
2021,03,31,04,02,3.40
2021,03,31,04,03,3.40
2021,03,31,04,04,3.40
2021,03,31,04,05,3.40
2021,03,31,04,06,3.40
2021,03,31,04,07,3.30
2021,03,31,04,08,3.30
2021,03,31,04,09,3.30
2021,03,31,04,10,3.30
2021,03,31,04,11,3.30
2021,03,31,04,12,3.30
2021,03,31,04,13,3.30
2021,03,31,04,14,3.20
2021,03,31,04,15,3.20
2021,03,31,04,16,3.20
2021,03,31,04,17,3.20
2021,03,31,04,18,3.20
2021,03,31,04,19,3.20
2021,03,31,04,20,3.20
2021,03,31,04,21,3.20
2021,03,31,04,22,3.20
2021,03,31,04,23,3.20
2021,03,31,04,24,3.20
2021,03,31,04,25,3.20
2021,03,31,04,26,3.20
2021,03,31,04,27,3.20
2021,03,31,04,28,3.20
2021,03,31,04,29,3.20
2021,03,31,04,30,3.20
2021,03,31,04,31,3.20
2021,03,31,04,32,3.20
2021,03,31,04,33,3.20
2021,03,31,04,34,3.20
2021,03,31,04,35,3.20
2021,03,31,04,36,3.20
2021,03,31,04,37,3.20
2021,03,31,04,38,3.20
2021,03,31,04,39,3.20
2021,03,31,04,40,3.20
2021,03,31,04,41,3.20
2021,03,31,04,42,3.20
2021,03,31,04,43,3.10
2021,03,31,04,44,3.10
2021,03,31,04,45,3.10
2021,03,31,04,46,3.10
2021,03,31,04,47,3.10
2021,03,31,04,48,3.10
2021,03,31,04,49,3.10
2021,03,31,04,50,3.10
2021,03,31,04,51,3.00
2021,03,31,04,52,3.00
2021,03,31,04,53,3.00
2021,03,31,04,54,3.00
2021,03,31,04,55,3.00
2021,03,31,04,56,3.00
2021,03,31,04,57,3.00
2021,03,31,04,58,3.00
2021,03,31,04,59,3.00
2021,03,31,05,00,3.00
2021,03,31,05,01,3.00
2021,03,31,05,02,3.00
2021,03,31,05,03,3.00
2021,03,31,05,04,3.00
2021,03,31,05,05,3.00
2021,03,31,05,06,3.00
2021,03,31,05,07,3.10
2021,03,31,05,08,3.10
2021,03,31,05,09,3.10
2021,03,31,05,10,3.10
2021,03,31,05,11,3.10
2021,03,31,05,12,3.10
2021,03,31,05,13,3.00
2021,03,31,05,14,3.00
2021,03,31,05,15,3.00
2021,03,31,05,16,3.00
2021,03,31,05,17,3.00
2021,03,31,05,18,2.90
2021,03,31,05,19,2.90
2021,03,31,05,20,2.90
2021,03,31,05,21,2.90
2021,03,31,05,22,2.90
2021,03,31,05,23,2.90
2021,03,31,05,24,2.90
2021,03,31,05,25,2.90
2021,03,31,05,26,2.90
2021,03,31,05,27,2.90
2021,03,31,05,28,2.90
2021,03,31,05,29,2.90
2021,03,31,05,30,2.80
2021,03,31,05,31,2.80
2021,03,31,05,32,2.80
2021,03,31,05,33,2.80
2021,03,31,05,34,2.80
2021,03,31,05,35,2.80
2021,03,31,05,36,2.80
2021,03,31,05,37,2.80
2021,03,31,05,38,2.80
2021,03,31,05,39,2.80
2021,03,31,05,40,2.80
2021,03,31,05,41,2.80
2021,03,31,05,42,2.80
2021,03,31,05,43,2.80
2021,03,31,05,44,2.80
2021,03,31,05,45,2.80
2021,03,31,05,46,2.70
2021,03,31,05,47,2.70
2021,03,31,05,48,2.70
2021,03,31,05,49,2.70
2021,03,31,05,50,2.60
2021,03,31,05,51,2.60
2021,03,31,05,52,2.60
2021,03,31,05,53,2.60
2021,03,31,05,54,2.60
2021,03,31,05,55,2.60
2021,03,31,05,56,2.50
2021,03,31,05,57,2.50
2021,03,31,05,58,2.50
2021,03,31,05,59,2.50
2021,03,31,06,00,2.50
2021,03,31,06,01,2.50
2021,03,31,06,02,2.50
2021,03,31,06,03,2.50
2021,03,31,06,04,2.50
2021,03,31,06,05,2.50
2021,03,31,06,06,2.50
2021,03,31,06,07,2.50
2021,03,31,06,08,2.50
2021,03,31,06,09,2.50
2021,03,31,06,10,2.50
2021,03,31,06,11,2.50
2021,03,31,06,12,2.50
2021,03,31,06,13,2.50
2021,03,31,06,14,2.50
2021,03,31,06,15,2.50
2021,03,31,06,16,2.50
2021,03,31,06,17,2.50
2021,03,31,06,18,2.50
2021,03,31,06,19,2.50
2021,03,31,06,20,2.50
2021,03,31,06,21,2.50
2021,03,31,06,22,2.50
2021,03,31,06,23,2.50
2021,03,31,06,24,2.50
2021,03,31,06,25,2.50
2021,03,31,06,26,2.50
2021,03,31,06,27,2.50
2021,03,31,06,28,2.50
2021,03,31,06,29,2.50
2021,03,31,06,30,2.50
2021,03,31,06,31,2.50
2021,03,31,06,32,2.40
2021,03,31,06,33,2.40
2021,03,31,06,34,2.40
2021,03,31,06,35,2.40
2021,03,31,06,36,2.40
2021,03,31,06,37,2.40
2021,03,31,06,38,2.40
2021,03,31,06,39,2.30
2021,03,31,06,40,2.30
2021,03,31,06,41,2.30
2021,03,31,06,42,2.30
2021,03,31,06,43,2.30
2021,03,31,06,44,2.30
2021,03,31,06,45,2.30
2021,03,31,06,46,2.30
2021,03,31,06,47,2.30
2021,03,31,06,48,2.30
2021,03,31,06,49,2.30
2021,03,31,06,50,2.30
2021,03,31,06,51,2.30
2021,03,31,06,52,2.30
2021,03,31,06,53,2.30
2021,03,31,06,54,2.30
2021,03,31,06,55,2.30
2021,03,31,06,56,2.30
2021,03,31,06,57,2.30
2021,03,31,06,58,2.30
2021,03,31,06,59,2.30
2021,03,31,07,00,2.20
2021,03,31,07,01,2.20
2021,03,31,07,02,2.20
2021,03,31,07,03,2.20
2021,03,31,07,04,2.20
2021,03,31,07,05,2.20
2021,03,31,07,06,2.20
2021,03,31,07,07,2.30
2021,03,31,07,08,2.30
2021,03,31,07,09,2.30
2021,03,31,07,10,2.30
2021,03,31,07,11,2.30
2021,03,31,07,12,2.30
2021,03,31,07,13,2.30
2021,03,31,07,14,2.30
2021,03,31,07,15,2.30
2021,03,31,07,16,2.30
2021,03,31,07,17,2.30
2021,03,31,07,18,2.30
2021,03,31,07,19,2.20
2021,03,31,07,20,2.20
2021,03,31,07,21,2.20
2021,03,31,07,22,2.20
2021,03,31,07,23,2.20
2021,03,31,07,24,2.20
2021,03,31,07,25,2.20
2021,03,31,07,26,2.20
2021,03,31,07,27,2.20
2021,03,31,07,28,2.20
2021,03,31,07,29,2.20
2021,03,31,07,30,2.20
2021,03,31,07,31,2.20
2021,03,31,07,32,2.20
2021,03,31,07,33,2.20
2021,03,31,07,34,2.20
2021,03,31,07,35,2.20
2021,03,31,07,36,2.20
2021,03,31,07,37,2.20
2021,03,31,07,38,2.20
2021,03,31,07,39,2.20
2021,03,31,07,40,2.20
2021,03,31,07,41,2.20
2021,03,31,07,42,2.20
2021,03,31,07,43,2.20
2021,03,31,07,44,2.20
2021,03,31,07,45,2.30
2021,03,31,07,46,2.30
2021,03,31,07,47,2.30
2021,03,31,07,48,2.30
2021,03,31,07,49,2.30
2021,03,31,07,50,2.30
2021,03,31,07,51,2.30
2021,03,31,07,52,2.40
2021,03,31,07,53,2.40
2021,03,31,07,54,2.40
2021,03,31,07,55,2.50
2021,03,31,07,56,2.50
2021,03,31,07,57,2.50
2021,03,31,07,58,2.60
2021,03,31,07,59,2.60
2021,03,31,08,00,2.60
2021,03,31,08,01,2.60
2021,03,31,08,02,2.60
2021,03,31,08,03,2.60
2021,03,31,08,04,2.60
2021,03,31,08,05,2.70
2021,03,31,08,06,2.70
2021,03,31,08,07,2.70
2021,03,31,08,08,2.70
2021,03,31,08,09,2.80
2021,03,31,08,10,2.80
2021,03,31,08,11,2.80
2021,03,31,08,12,2.80
2021,03,31,08,13,2.80
2021,03,31,08,14,2.90
2021,03,31,08,15,2.90
2021,03,31,08,16,2.90
2021,03,31,08,17,2.90
2021,03,31,08,18,3.00
2021,03,31,08,19,3.00
2021,03,31,08,20,3.10
2021,03,31,08,21,3.10
2021,03,31,08,22,3.10
2021,03,31,08,23,3.20
2021,03,31,08,24,3.20
2021,03,31,08,25,3.30
2021,03,31,08,26,3.30
2021,03,31,08,27,3.40
2021,03,31,08,28,3.40
2021,03,31,08,29,3.50
2021,03,31,08,30,3.50
2021,03,31,08,31,3.60
2021,03,31,08,32,3.60
2021,03,31,08,33,3.70
2021,03,31,08,34,3.70
2021,03,31,08,35,3.80
2021,03,31,08,36,3.90
2021,03,31,08,37,4.00
2021,03,31,08,38,4.10
2021,03,31,08,39,4.20
2021,03,31,08,40,4.30
2021,03,31,08,41,4.40
2021,03,31,08,42,4.50
2021,03,31,08,43,4.60
2021,03,31,08,44,4.70
2021,03,31,08,45,4.70
2021,03,31,08,46,4.80
2021,03,31,08,47,4.80
2021,03,31,08,48,4.90
2021,03,31,08,49,5.00
2021,03,31,08,50,5.00
2021,03,31,08,51,5.10
2021,03,31,08,52,5.10
2021,03,31,08,53,5.20
2021,03,31,08,54,5.20
2021,03,31,08,55,5.30
2021,03,31,08,56,5.30
2021,03,31,08,57,5.40
2021,03,31,08,58,5.50
2021,03,31,08,59,5.50
2021,03,31,09,00,5.60
2021,03,31,09,01,5.60
2021,03,31,09,02,5.70
2021,03,31,09,03,5.70
2021,03,31,09,04,5.70
2021,03,31,09,05,5.70
2021,03,31,09,06,5.80
2021,03,31,09,07,5.80
2021,03,31,09,08,5.80
2021,03,31,09,09,5.80
2021,03,31,09,10,5.80
2021,03,31,09,11,5.80
2021,03,31,09,12,5.80
2021,03,31,09,13,5.80
2021,03,31,09,14,5.80
2021,03,31,09,15,5.80
2021,03,31,09,16,5.90
2021,03,31,09,17,5.90
2021,03,31,09,18,6.00
2021,03,31,09,19,6.00
2021,03,31,09,20,6.00
2021,03,31,09,21,6.10
2021,03,31,09,22,6.10
2021,03,31,09,23,6.20
2021,03,31,09,24,6.20
2021,03,31,09,25,6.30
2021,03,31,09,26,6.30
2021,03,31,09,27,6.30
2021,03,31,09,28,6.30
2021,03,31,09,29,6.40
2021,03,31,09,30,6.50
2021,03,31,09,31,6.50
2021,03,31,09,32,6.50
2021,03,31,09,33,6.50
2021,03,31,09,34,6.50
2021,03,31,09,35,6.50
2021,03,31,09,36,6.50
2021,03,31,09,37,6.50
2021,03,31,09,38,6.40
2021,03,31,09,39,6.40
2021,03,31,09,40,6.30
2021,03,31,09,41,6.30
2021,03,31,09,42,6.30
2021,03,31,09,43,6.40
2021,03,31,09,44,6.40
2021,03,31,09,45,6.40
2021,03,31,09,46,6.50
2021,03,31,09,47,6.50
2021,03,31,09,48,6.50
2021,03,31,09,49,6.50
2021,03,31,09,50,6.50
2021,03,31,09,51,6.50
2021,03,31,09,52,6.50
2021,03,31,09,53,6.50
2021,03,31,09,54,6.50
2021,03,31,09,55,6.50
2021,03,31,09,56,6.50
2021,03,31,09,57,6.40
2021,03,31,09,58,6.40
2021,03,31,09,59,6.40
2021,03,31,10,00,6.40
2021,03,31,10,01,6.40
2021,03,31,10,02,6.40
2021,03,31,10,03,6.50
2021,03,31,10,04,6.50
2021,03,31,10,05,6.60
2021,03,31,10,06,6.60
2021,03,31,10,07,6.70
2021,03,31,10,08,6.70
2021,03,31,10,09,6.80
2021,03,31,10,10,6.90
2021,03,31,10,11,6.90
2021,03,31,10,12,6.90
2021,03,31,10,13,6.90
2021,03,31,10,14,6.90
2021,03,31,10,15,6.80
2021,03,31,10,16,6.80
2021,03,31,10,17,6.90
2021,03,31,10,18,6.80
2021,03,31,10,19,6.80
2021,03,31,10,20,6.90
2021,03,31,10,21,7.00
2021,03,31,10,22,7.00
2021,03,31,10,23,7.10
2021,03,31,10,24,7.20
2021,03,31,10,25,7.30
2021,03,31,10,26,7.40
2021,03,31,10,27,7.40
2021,03,31,10,28,7.40
2021,03,31,10,29,7.40
2021,03,31,10,30,7.30
2021,03,31,10,31,7.30
2021,03,31,10,32,7.30
2021,03,31,10,33,7.30
2021,03,31,10,34,7.30
2021,03,31,10,35,7.30
2021,03,31,10,36,7.30
2021,03,31,10,37,7.30
2021,03,31,10,38,7.20
2021,03,31,10,39,7.20
2021,03,31,10,40,7.30
2021,03,31,10,41,7.30
2021,03,31,10,42,7.30
2021,03,31,10,43,7.40
2021,03,31,10,44,7.40
2021,03,31,10,45,7.50
2021,03,31,10,46,7.50
2021,03,31,10,47,7.50
2021,03,31,10,48,7.60
2021,03,31,10,49,7.60
2021,03,31,10,50,7.70
2021,03,31,10,51,7.60
2021,03,31,10,52,7.70
2021,03,31,10,53,7.70
2021,03,31,10,54,7.70
2021,03,31,10,55,7.80
2021,03,31,10,56,7.80
2021,03,31,10,57,7.80
2021,03,31,10,58,7.90
2021,03,31,10,59,7.90
2021,03,31,11,00,8.00
2021,03,31,11,01,8.00
2021,03,31,11,02,8.00
2021,03,31,11,03,7.90
2021,03,31,11,04,7.90
2021,03,31,11,05,7.90
2021,03,31,11,06,7.80
2021,03,31,11,07,7.80
2021,03,31,11,08,7.80
2021,03,31,11,09,7.80
2021,03,31,11,10,7.90
2021,03,31,11,11,7.90
2021,03,31,11,12,7.90
2021,03,31,11,13,7.90
2021,03,31,11,14,7.90
2021,03,31,11,15,7.90
2021,03,31,11,16,7.90
2021,03,31,11,17,7.90
2021,03,31,11,18,7.80
2021,03,31,11,19,7.80
2021,03,31,11,20,7.80
2021,03,31,11,21,7.80
2021,03,31,11,22,7.80
2021,03,31,11,23,7.90
2021,03,31,11,24,8.00
2021,03,31,11,25,8.10
2021,03,31,11,26,8.10
2021,03,31,11,27,8.20
2021,03,31,11,28,8.20
2021,03,31,11,29,8.20
2021,03,31,11,30,8.20
2021,03,31,11,31,8.10
2021,03,31,11,32,8.10
2021,03,31,11,33,8.10
2021,03,31,11,34,8.10
2021,03,31,11,35,8.20
2021,03,31,11,36,8.20
2021,03,31,11,37,8.30
2021,03,31,11,38,8.30
2021,03,31,11,39,8.20
2021,03,31,11,40,8.20
2021,03,31,11,41,8.20
2021,03,31,11,42,8.30
2021,03,31,11,43,8.40
2021,03,31,11,44,8.50
2021,03,31,11,45,8.60
2021,03,31,11,46,8.70
2021,03,31,11,47,8.90
2021,03,31,11,48,9.00
2021,03,31,11,49,9.10
2021,03,31,11,50,9.20
2021,03,31,11,51,9.20
2021,03,31,11,52,9.30
2021,03,31,11,53,9.30
2021,03,31,11,54,9.40
2021,03,31,11,55,9.40
2021,03,31,11,56,9.40
2021,03,31,11,57,9.40
2021,03,31,11,58,9.50
2021,03,31,11,59,9.40
2021,03,31,12,00,9.40
2021,03,31,12,01,9.30
2021,03,31,12,02,9.30
2021,03,31,12,03,9.30
2021,03,31,12,04,9.30
2021,03,31,12,05,9.30
2021,03,31,12,06,9.30
2021,03,31,12,07,9.20
2021,03,31,12,08,9.20
2021,03,31,12,09,9.20
2021,03,31,12,10,9.20
2021,03,31,12,11,9.30
2021,03,31,12,12,9.40
2021,03,31,12,13,9.40
2021,03,31,12,14,9.50
2021,03,31,12,15,9.70
2021,03,31,12,16,9.70
2021,03,31,12,17,9.70
2021,03,31,12,18,9.70
2021,03,31,12,19,9.60
2021,03,31,12,20,9.50
2021,03,31,12,21,9.40
2021,03,31,12,22,9.40
2021,03,31,12,23,9.40
2021,03,31,12,24,9.40
2021,03,31,12,25,9.40
2021,03,31,12,26,9.40
2021,03,31,12,27,9.40
2021,03,31,12,28,9.30
2021,03,31,12,29,9.30
2021,03,31,12,30,9.30
2021,03,31,12,31,9.30
2021,03,31,12,32,9.30
2021,03,31,12,33,9.20
2021,03,31,12,34,9.20
2021,03,31,12,35,9.20
2021,03,31,12,36,9.20
2021,03,31,12,37,9.30
2021,03,31,12,38,9.30
2021,03,31,12,39,9.30
2021,03,31,12,40,9.40
2021,03,31,12,41,9.50
2021,03,31,12,42,9.60
2021,03,31,12,43,9.60
2021,03,31,12,44,9.70
2021,03,31,12,45,9.70
2021,03,31,12,46,9.70
2021,03,31,12,47,9.80
2021,03,31,12,48,9.90
2021,03,31,12,49,9.90
2021,03,31,12,50,9.90
2021,03,31,12,51,9.90
2021,03,31,12,52,9.90
2021,03,31,12,53,9.80
2021,03,31,12,54,9.80
2021,03,31,12,55,9.80
2021,03,31,12,56,9.80
2021,03,31,12,57,9.80
2021,03,31,12,58,9.80
2021,03,31,12,59,9.70
2021,03,31,13,00,9.70
2021,03,31,13,01,9.70
2021,03,31,13,02,9.70
2021,03,31,13,03,9.70
2021,03,31,13,04,9.60
2021,03,31,13,05,9.60
2021,03,31,13,06,9.50
2021,03,31,13,07,9.50
2021,03,31,13,08,9.60
2021,03,31,13,09,9.50
2021,03,31,13,10,9.50
2021,03,31,13,11,9.50
2021,03,31,13,12,9.60
2021,03,31,13,13,9.60
2021,03,31,13,14,9.60
2021,03,31,13,15,9.60
2021,03,31,13,16,9.60
2021,03,31,13,17,9.70
2021,03,31,13,18,9.80
2021,03,31,13,19,9.90
2021,03,31,13,20,9.90
2021,03,31,13,21,9.90
2021,03,31,13,22,9.90
2021,03,31,13,23,9.90
2021,03,31,13,24,9.90
2021,03,31,13,25,10.00
2021,03,31,13,26,10.00
2021,03,31,13,27,9.90
2021,03,31,13,28,9.90
2021,03,31,13,29,9.90
2021,03,31,13,30,9.90
2021,03,31,13,31,9.90
2021,03,31,13,32,9.80
2021,03,31,13,33,9.80
2021,03,31,13,34,9.80
2021,03,31,13,35,9.80
2021,03,31,13,36,9.80
2021,03,31,13,37,9.80
2021,03,31,13,38,9.80
2021,03,31,13,39,9.80
2021,03,31,13,40,9.80
2021,03,31,13,41,9.80
2021,03,31,13,42,9.80
2021,03,31,13,43,9.80
2021,03,31,13,44,9.80
2021,03,31,13,45,9.80
2021,03,31,13,46,9.90
2021,03,31,13,47,10.00
2021,03,31,13,48,10.10
2021,03,31,13,49,10.10
2021,03,31,13,50,10.10
2021,03,31,13,51,10.10
2021,03,31,13,52,10.10
2021,03,31,13,53,10.10
2021,03,31,13,54,10.10
2021,03,31,13,55,10.10
2021,03,31,13,56,10.10
2021,03,31,13,57,10.10
2021,03,31,13,58,10.10
2021,03,31,13,59,10.10
2021,03,31,14,00,10.10
2021,03,31,14,01,10.00
2021,03,31,14,02,10.00
2021,03,31,14,03,10.10
2021,03,31,14,04,10.00
2021,03,31,14,05,10.00
2021,03,31,14,06,10.10
2021,03,31,14,07,10.10
2021,03,31,14,08,10.10
2021,03,31,14,09,10.10
2021,03,31,14,10,10.10
2021,03,31,14,11,10.10
2021,03,31,14,12,10.10
2021,03,31,14,13,10.10
2021,03,31,14,14,10.10
2021,03,31,14,15,10.10
2021,03,31,14,16,10.10
2021,03,31,14,17,10.10
2021,03,31,14,18,10.10
2021,03,31,14,19,10.00
2021,03,31,14,20,10.00
2021,03,31,14,21,10.00
2021,03,31,14,22,10.00
2021,03,31,14,23,9.90
2021,03,31,14,24,10.00
2021,03,31,14,25,10.00
2021,03,31,14,26,10.00
2021,03,31,14,27,10.00
2021,03,31,14,28,10.00
2021,03,31,14,29,10.00
2021,03,31,14,30,10.10
2021,03,31,14,31,10.10
2021,03,31,14,32,10.10
2021,03,31,14,33,10.10
2021,03,31,14,34,10.10
2021,03,31,14,35,10.20
2021,03,31,14,36,10.20
2021,03,31,14,37,10.20
2021,03,31,14,38,10.10
2021,03,31,14,39,10.10
2021,03,31,14,40,10.10
2021,03,31,14,41,10.10
2021,03,31,14,42,10.20
2021,03,31,14,43,10.20
2021,03,31,14,44,10.30
2021,03,31,14,45,10.30
2021,03,31,14,46,10.40
2021,03,31,14,47,10.50
2021,03,31,14,48,10.50
2021,03,31,14,49,10.60
2021,03,31,14,50,10.70
2021,03,31,14,51,10.70
2021,03,31,14,52,10.70
2021,03,31,14,53,10.80
2021,03,31,14,54,10.80
2021,03,31,14,55,10.80
2021,03,31,14,56,10.70
2021,03,31,14,57,10.70
2021,03,31,14,58,10.70
2021,03,31,14,59,10.60
2021,03,31,15,00,10.50
2021,03,31,15,01,10.50
2021,03,31,15,02,10.40
2021,03,31,15,03,10.40
2021,03,31,15,04,10.50
2021,03,31,15,05,10.50
2021,03,31,15,06,10.60
2021,03,31,15,07,10.60
2021,03,31,15,08,10.50
2021,03,31,15,09,10.50
2021,03,31,15,10,10.50
2021,03,31,15,11,10.50
2021,03,31,15,12,10.50
2021,03,31,15,13,10.60
2021,03,31,15,14,10.70
2021,03,31,15,15,10.70
2021,03,31,15,16,10.70
2021,03,31,15,17,10.70
2021,03,31,15,18,10.70
2021,03,31,15,19,10.60
2021,03,31,15,20,10.60
2021,03,31,15,21,10.50
2021,03,31,15,22,10.50
2021,03,31,15,23,10.40
2021,03,31,15,24,10.40
2021,03,31,15,25,10.40
2021,03,31,15,26,10.40
2021,03,31,15,27,10.30
2021,03,31,15,28,10.30
2021,03,31,15,29,10.40
2021,03,31,15,30,10.40
2021,03,31,15,31,10.40
2021,03,31,15,32,10.40
2021,03,31,15,33,10.40
2021,03,31,15,34,10.40
2021,03,31,15,35,10.40
2021,03,31,15,36,10.40
2021,03,31,15,37,10.30
2021,03,31,15,38,10.30
2021,03,31,15,39,10.30
2021,03,31,15,40,10.30
2021,03,31,15,41,10.30
2021,03,31,15,42,10.30
2021,03,31,15,43,10.30
2021,03,31,15,44,10.30
2021,03,31,15,45,10.30
2021,03,31,15,46,10.30
2021,03,31,15,47,10.40
2021,03,31,15,48,10.40
2021,03,31,15,49,10.40
2021,03,31,15,50,10.40
2021,03,31,15,51,10.40
2021,03,31,15,52,10.40
2021,03,31,15,53,10.40
2021,03,31,15,54,10.40
2021,03,31,15,55,10.40
2021,03,31,15,56,10.40
2021,03,31,15,57,10.40
2021,03,31,15,58,10.40
2021,03,31,15,59,10.40
2021,03,31,16,00,10.40
2021,03,31,16,01,10.40
2021,03,31,16,02,10.40
2021,03,31,16,03,10.40
2021,03,31,16,04,10.40
2021,03,31,16,05,10.40
2021,03,31,16,06,10.40
2021,03,31,16,07,10.40
2021,03,31,16,08,10.50
2021,03,31,16,09,10.50
2021,03,31,16,10,10.50
2021,03,31,16,11,10.50
2021,03,31,16,12,10.50
2021,03,31,16,13,10.50
2021,03,31,16,14,10.50
2021,03,31,16,15,10.50
2021,03,31,16,16,10.40
2021,03,31,16,17,10.40
2021,03,31,16,18,10.40
2021,03,31,16,19,10.40
2021,03,31,16,20,10.40
2021,03,31,16,21,10.40
2021,03,31,16,22,10.40
2021,03,31,16,23,10.40
2021,03,31,16,24,10.40
2021,03,31,16,25,10.40
2021,03,31,16,26,10.50
2021,03,31,16,27,10.50
2021,03,31,16,28,10.60
2021,03,31,16,29,10.60
2021,03,31,16,30,10.60
2021,03,31,16,31,10.70
2021,03,31,16,32,10.70
2021,03,31,16,33,10.70
2021,03,31,16,34,10.70
2021,03,31,16,35,10.70
2021,03,31,16,36,10.70
2021,03,31,16,37,10.70
2021,03,31,16,38,10.70
2021,03,31,16,39,10.70
2021,03,31,16,40,10.70
2021,03,31,16,41,10.70
2021,03,31,16,42,10.60
2021,03,31,16,43,10.60
2021,03,31,16,44,10.60
2021,03,31,16,45,10.50
2021,03,31,16,46,10.50
2021,03,31,16,47,10.50
2021,03,31,16,48,10.50
2021,03,31,16,49,10.50
2021,03,31,16,50,10.50
2021,03,31,16,51,10.50
2021,03,31,16,52,10.60
2021,03,31,16,53,10.60
2021,03,31,16,54,10.60
2021,03,31,16,55,10.60
2021,03,31,16,56,10.60
2021,03,31,16,57,10.70
2021,03,31,16,58,10.70
2021,03,31,16,59,10.70
2021,03,31,17,00,10.70
2021,03,31,17,01,10.70
2021,03,31,17,02,10.70
2021,03,31,17,03,10.70
2021,03,31,17,04,10.70
2021,03,31,17,05,10.70
2021,03,31,17,06,10.70
2021,03,31,17,07,10.70
2021,03,31,17,08,10.80
2021,03,31,17,09,10.80
2021,03,31,17,10,10.80
2021,03,31,17,11,10.90
2021,03,31,17,12,11.00
2021,03,31,17,13,11.00
2021,03,31,17,14,11.00
2021,03,31,17,15,11.00
2021,03,31,17,16,11.00
2021,03,31,17,17,11.00
2021,03,31,17,18,10.90
2021,03,31,17,19,10.90
2021,03,31,17,20,10.90
2021,03,31,17,21,10.90
2021,03,31,17,22,10.90
2021,03,31,17,23,10.90
2021,03,31,17,24,10.90
2021,03,31,17,25,10.80
2021,03,31,17,26,10.80
2021,03,31,17,27,10.80
2021,03,31,17,28,10.90
2021,03,31,17,29,10.90
2021,03,31,17,30,10.90
2021,03,31,17,31,10.90
2021,03,31,17,32,10.90
2021,03,31,17,33,10.90
2021,03,31,17,34,10.90
2021,03,31,17,35,10.90
2021,03,31,17,36,10.90
2021,03,31,17,37,10.90
2021,03,31,17,38,10.90
2021,03,31,17,39,10.90
2021,03,31,17,40,10.90
2021,03,31,17,41,10.90
2021,03,31,17,42,10.90
2021,03,31,17,43,10.80
2021,03,31,17,44,10.80
2021,03,31,17,45,10.80
2021,03,31,17,46,10.80
2021,03,31,17,47,10.90
2021,03,31,17,48,10.90
2021,03,31,17,49,10.90
2021,03,31,17,50,10.90
2021,03,31,17,51,10.90
2021,03,31,17,52,10.90
2021,03,31,17,53,10.90
2021,03,31,17,54,10.90
2021,03,31,17,55,10.80